PGT270A LTFJ-LTFH

Flight info

Callsign PGT270A
Flight time 0h 57m
Altitude 37000
Route VICEN UT380 ASMAP UL333 LATGA UT363 ESB UT364 ILHAN UW71 HAVZA
Aircraft A320/M-SDE3FGHIRWY/LB1

Departure

Time 2026-04-26 18:19
Airport Istanbul Sabiha Gökçen International Airport (LTFJ)

Arrival

Time 2026-04-26 19:16
Airport Samsun-Çarşamba Airport (LTFH)
Time Latitude Longitude Altitude Speed Heading
2026-04-26 17:49 40.90889 29.31880 311 ft 0 kts 244°
2026-04-26 18:08 40.90890 29.31883 311 ft 3 kts 245°
2026-04-26 18:08 40.90901 29.31915 311 ft 4 kts 246°
2026-04-26 18:08 40.90913 29.31946 310 ft 4 kts 223°
2026-04-26 18:08 40.90928 29.31955 311 ft 1 kts 167°
2026-04-26 18:09 40.90931 29.31954 311 ft 0 kts 167°
2026-04-26 18:12 40.90906 29.31963 309 ft 5 kts 165°
2026-04-26 18:12 40.90875 29.31979 311 ft 5 kts 155°
2026-04-26 18:13 40.90838 29.32036 311 ft 10 kts 115°
2026-04-26 18:13 40.90790 29.32087 311 ft 9 kts 156°
2026-04-26 18:13 40.90739 29.32119 311 ft 9 kts 154°
2026-04-26 18:13 40.90718 29.32155 311 ft 7 kts 91°
2026-04-26 18:14 40.90736 29.32234 311 ft 8 kts 92°
2026-04-26 18:14 40.90690 29.32291 311 ft 10 kts 155°
2026-04-26 18:14 40.90634 29.32326 311 ft 8 kts 155°
2026-04-26 18:14 40.90608 29.32374 311 ft 6 kts 118°
2026-04-26 18:15 40.90588 29.32416 311 ft 5 kts 131°
2026-04-26 18:15 40.90562 29.32432 311 ft 4 kts 154°
2026-04-26 18:15 40.90540 29.32446 311 ft 3 kts 154°
2026-04-26 18:15 40.90530 29.32452 311 ft 0 kts 154°
2026-04-26 18:17 40.90530 29.32453 311 ft 1 kts 154°
2026-04-26 18:17 40.90491 29.32477 312 ft 8 kts 154°
2026-04-26 18:17 40.90448 29.32495 313 ft 6 kts 183°
2026-04-26 18:18 40.90425 29.32468 311 ft 4 kts 244°
2026-04-26 18:18 40.90366 29.32306 312 ft 53 kts 244°
2026-04-26 18:18 40.90091 29.31557 312 ft 124 kts 244°
2026-04-26 18:18 40.89645 29.30323 508 ft 163 kts 245°
2026-04-26 18:19 40.89105 29.28857 1090 ft 192 kts 244°
2026-04-26 18:19 40.88480 29.27201 1838 ft 204 kts 245°
2026-04-26 18:19 40.87858 29.25501 2511 ft 211 kts 247°
2026-04-26 18:19 40.87205 29.23662 3025 ft 230 kts 247°
2026-04-26 18:20 40.86507 29.21691 3727 ft 244 kts 247°
2026-04-26 18:20 40.85770 29.19614 3985 ft 251 kts 247°
2026-04-26 18:20 40.85023 29.17529 4028 ft 251 kts 246°
2026-04-26 18:20 40.84399 29.16239 4037 ft 254 kts 228°
2026-04-26 18:21 40.82216 29.15072 4135 ft 276 kts 177°
2026-04-26 18:21 40.80340 29.15775 5046 ft 283 kts 156°
2026-04-26 18:21 40.78596 29.16989 6078 ft 285 kts 150°
2026-04-26 18:21 40.76889 29.18342 7035 ft 288 kts 149°
2026-04-26 18:22 40.75203 29.19799 7940 ft 292 kts 140°
2026-04-26 18:22 40.73759 29.21702 8843 ft 296 kts 129°
2026-04-26 18:22 40.72396 29.23763 9779 ft 299 kts 131°
2026-04-26 18:22 40.70960 29.25799 10415 ft 313 kts 132°
2026-04-26 18:23 40.69417 29.27923 10716 ft 337 kts 133°
2026-04-26 18:23 40.67713 29.30240 11109 ft 355 kts 133°
2026-04-26 18:23 40.65971 29.32599 11792 ft 363 kts 133°
2026-04-26 18:23 40.64224 29.34975 12545 ft 367 kts 133°
2026-04-26 18:24 40.62445 29.37417 13314 ft 372 kts 131°
2026-04-26 18:24 40.60905 29.40163 14033 ft 375 kts 119°
2026-04-26 18:24 40.59841 29.43354 14720 ft 378 kts 105°
2026-04-26 18:24 40.59337 29.46751 15381 ft 380 kts 93°
2026-04-26 18:25 40.59389 29.50194 15856 ft 382 kts 82°
2026-04-26 18:25 40.59712 29.53664 15975 ft 382 kts 81°
2026-04-26 18:25 40.60047 29.57163 16452 ft 386 kts 81°
2026-04-26 18:25 40.60382 29.60680 17165 ft 389 kts 81°
2026-04-26 18:26 40.60714 29.64225 17834 ft 393 kts 81°
2026-04-26 18:26 40.61044 29.67819 18452 ft 397 kts 81°
2026-04-26 18:26 40.61375 29.71446 19008 ft 401 kts 81°
2026-04-26 18:26 40.61706 29.75104 19559 ft 404 kts 82°
2026-04-26 18:27 40.62041 29.78794 20113 ft 408 kts 82°
2026-04-26 18:27 40.62378 29.82514 20663 ft 411 kts 82°
2026-04-26 18:27 40.62716 29.86267 21205 ft 415 kts 82°
2026-04-26 18:27 40.63054 29.90061 21735 ft 418 kts 82°
2026-04-26 18:28 40.63390 29.93878 22248 ft 421 kts 82°
2026-04-26 18:28 40.63729 29.97725 22774 ft 425 kts 82°
2026-04-26 18:28 40.64073 30.01601 23277 ft 428 kts 82°
2026-04-26 18:28 40.64421 30.05509 23754 ft 431 kts 82°
2026-04-26 18:29 40.64775 30.09445 24179 ft 434 kts 82°
2026-04-26 18:29 40.65127 30.13407 24597 ft 437 kts 82°
2026-04-26 18:29 40.65477 30.17392 25015 ft 439 kts 82°
2026-04-26 18:29 40.65820 30.21345 25422 ft 442 kts 82°
2026-04-26 18:30 40.66167 30.25374 25844 ft 444 kts 82°
2026-04-26 18:30 40.66440 30.29436 26232 ft 447 kts 87°
2026-04-26 18:30 40.66292 30.33542 26625 ft 451 kts 95°
2026-04-26 18:30 40.65950 30.37660 27016 ft 453 kts 95°
2026-04-26 18:31 40.65608 30.41800 27399 ft 456 kts 95°
2026-04-26 18:31 40.65263 30.45960 27794 ft 458 kts 95°
2026-04-26 18:31 40.64914 30.50142 28174 ft 461 kts 95°
2026-04-26 18:31 40.64563 30.54345 28531 ft 463 kts 95°
2026-04-26 18:32 40.64206 30.58577 28888 ft 465 kts 95°
2026-04-26 18:32 40.63843 30.62809 29232 ft 467 kts 95°
2026-04-26 18:32 40.63478 30.67071 29571 ft 470 kts 95°
2026-04-26 18:32 40.63030 30.71349 29902 ft 473 kts 100°
2026-04-26 18:33 40.62213 30.75553 30200 ft 475 kts 104°
2026-04-26 18:33 40.61327 30.79754 30466 ft 477 kts 104°
2026-04-26 18:33 40.60438 30.83960 30849 ft 476 kts 104°
2026-04-26 18:33 40.59549 30.88153 31245 ft 475 kts 104°
2026-04-26 18:34 40.58659 30.92338 31613 ft 475 kts 104°
2026-04-26 18:34 40.57767 30.96514 31998 ft 474 kts 104°
2026-04-26 18:34 40.56875 31.00694 32381 ft 473 kts 104°
2026-04-26 18:34 40.55989 31.04858 32783 ft 472 kts 104°
2026-04-26 18:35 40.55105 31.09014 33180 ft 472 kts 104°
2026-04-26 18:35 40.54230 31.13116 33568 ft 471 kts 104°
2026-04-26 18:35 40.53343 31.17254 33951 ft 470 kts 104°
2026-04-26 18:35 40.52455 31.21384 34275 ft 469 kts 104°
2026-04-26 18:36 40.51568 31.25510 34592 ft 469 kts 104°
2026-04-26 18:36 40.50936 31.29693 34903 ft 466 kts 91°
2026-04-26 18:36 40.51052 31.33919 35193 ft 462 kts 82°
2026-04-26 18:36 40.51392 31.38129 35489 ft 462 kts 82°
2026-04-26 18:37 40.51740 31.42325 35776 ft 462 kts 81°
2026-04-26 18:37 40.52093 31.46518 36045 ft 462 kts 82°
2026-04-26 18:37 40.52450 31.50717 36347 ft 461 kts 81°
2026-04-26 18:37 40.52803 31.54906 36609 ft 461 kts 82°
2026-04-26 18:38 40.53153 31.59093 36876 ft 461 kts 82°
2026-04-26 18:38 40.53497 31.63286 37016 ft 461 kts 82°
2026-04-26 18:38 40.54177 31.71667 37033 ft 461 kts 82°
2026-04-26 18:39 40.54849 31.79994 37034 ft 460 kts 82°
2026-04-26 18:39 40.55521 31.88366 37041 ft 460 kts 82°
2026-04-26 18:40 40.56186 31.96740 37044 ft 460 kts 82°
2026-04-26 18:40 40.56838 32.05115 37039 ft 460 kts 82°
2026-04-26 18:41 40.57485 32.13495 37040 ft 461 kts 82°
2026-04-26 18:41 40.58132 32.21879 37041 ft 461 kts 82°
2026-04-26 18:42 40.58775 32.30278 37047 ft 461 kts 82°
2026-04-26 18:42 40.59406 32.38671 37054 ft 461 kts 82°
2026-04-26 18:43 40.60035 32.47064 37043 ft 461 kts 83°
2026-04-26 18:43 40.60660 32.55472 37050 ft 461 kts 83°
2026-04-26 18:44 40.61274 32.63871 37043 ft 461 kts 83°
2026-04-26 18:44 40.61880 32.72271 37046 ft 461 kts 83°
2026-04-26 18:45 40.62478 32.80675 37043 ft 461 kts 83°
2026-04-26 18:45 40.63076 32.89081 37046 ft 461 kts 83°
2026-04-26 18:46 40.63668 32.97487 37048 ft 461 kts 83°
2026-04-26 18:46 40.64253 33.05899 37038 ft 462 kts 83°
2026-04-26 18:47 40.64834 33.14319 37046 ft 462 kts 83°
2026-04-26 18:47 40.65408 33.22754 37031 ft 462 kts 83°
2026-04-26 18:48 40.65973 33.31179 37029 ft 462 kts 84°
2026-04-26 18:48 40.66536 33.39619 37020 ft 462 kts 84°
2026-04-26 18:49 40.67092 33.47997 37018 ft 462 kts 84°
2026-04-26 18:49 40.67642 33.56433 37010 ft 462 kts 84°
2026-04-26 18:50 40.68190 33.64926 37008 ft 462 kts 84°
2026-04-26 18:50 40.68725 33.73307 36990 ft 462 kts 84°
2026-04-26 18:51 40.69255 33.81743 36990 ft 462 kts 84°
2026-04-26 18:51 40.69777 33.90188 36978 ft 462 kts 84°
2026-04-26 18:52 40.70207 33.97257 36971 ft 461 kts 84°
2026-04-26 18:52 40.70803 34.07058 36963 ft 462 kts 84°
2026-04-26 18:53 40.71310 34.15512 36964 ft 462 kts 84°
2026-04-26 18:53 40.71735 34.22585 36963 ft 463 kts 84°
2026-04-26 18:54 40.72232 34.31043 36776 ft 463 kts 84°
2026-04-26 18:54 40.72476 34.35267 36512 ft 462 kts 85°
2026-04-26 18:54 40.72716 34.39487 36254 ft 461 kts 85°
2026-04-26 18:55 40.72956 34.43705 35992 ft 461 kts 84°
2026-04-26 18:55 40.73196 34.47922 35739 ft 461 kts 84°
2026-04-26 18:55 40.73434 34.52081 35502 ft 461 kts 84°
2026-04-26 18:55 40.73673 34.56297 35245 ft 461 kts 84°
2026-04-26 18:56 40.73910 34.60522 34515 ft 465 kts 84°
2026-04-26 18:56 40.74147 34.64797 33599 ft 469 kts 84°
2026-04-26 18:56 40.74381 34.69105 32514 ft 473 kts 84°
2026-04-26 18:56 40.74820 34.73418 31422 ft 476 kts 76°
2026-04-26 18:57 40.75747 34.77611 30460 ft 476 kts 68°
2026-04-26 18:57 40.76561 34.80370 29633 ft 479 kts 67°
2026-04-26 18:57 40.78161 34.85781 28687 ft 471 kts 67°
2026-04-26 18:57 40.79333 34.89777 27950 ft 465 kts 67°
2026-04-26 18:58 40.80493 34.93746 27250 ft 459 kts 67°
2026-04-26 18:58 40.81634 34.97657 26561 ft 454 kts 67°
2026-04-26 18:58 40.82760 35.01519 25891 ft 450 kts 67°
2026-04-26 18:58 40.83881 35.05363 25253 ft 445 kts 67°
2026-04-26 18:59 40.84983 35.09149 24997 ft 438 kts 67°
2026-04-26 18:59 40.86074 35.12886 24889 ft 436 kts 67°
2026-04-26 18:59 40.87169 35.16634 24017 ft 440 kts 67°
2026-04-26 18:59 40.88280 35.20442 22943 ft 446 kts 67°
2026-04-26 19:00 40.89391 35.24268 22116 ft 445 kts 68°
2026-04-26 19:00 40.90492 35.28072 21463 ft 440 kts 68°
2026-04-26 19:00 40.91578 35.31832 20853 ft 434 kts 68°
2026-04-26 19:00 40.92643 35.35532 20321 ft 427 kts 68°
2026-04-26 19:01 40.93692 35.39174 19804 ft 421 kts 68°
2026-04-26 19:01 40.94722 35.42757 19275 ft 415 kts 68°
2026-04-26 19:01 40.95742 35.46310 18768 ft 409 kts 68°
2026-04-26 19:01 40.96751 35.49813 18236 ft 405 kts 69°
2026-04-26 19:02 40.97750 35.53282 17663 ft 401 kts 68°
2026-04-26 19:02 40.98736 35.56714 17122 ft 397 kts 68°
2026-04-26 19:02 40.99710 35.60112 16597 ft 393 kts 68°
2026-04-26 19:02 41.00348 35.62343 16233 ft 391 kts 69°
2026-04-26 19:03 41.01632 35.66837 15512 ft 388 kts 68°
2026-04-26 19:03 41.02586 35.70174 14954 ft 387 kts 68°
2026-04-26 19:03 41.03535 35.73448 14419 ft 385 kts 68°
2026-04-26 19:03 41.04518 35.76795 13855 ft 384 kts 68°
2026-04-26 19:04 41.05477 35.80046 13253 ft 383 kts 68°
2026-04-26 19:04 41.06443 35.83324 12694 ft 381 kts 68°
2026-04-26 19:04 41.07417 35.86623 12118 ft 378 kts 68°
2026-04-26 19:04 41.08369 35.89810 11544 ft 374 kts 66°
2026-04-26 19:05 41.11323 35.95319 10533 ft 361 kts 40°
2026-04-26 19:05 41.13164 35.97485 10425 ft 346 kts 40°
2026-04-26 19:05 41.14918 35.99580 10284 ft 332 kts 40°
2026-04-26 19:06 41.16596 36.01601 10173 ft 320 kts 40°
2026-04-26 19:06 41.18212 36.03552 10062 ft 309 kts 40°
2026-04-26 19:06 41.19785 36.05449 9844 ft 302 kts 40°
2026-04-26 19:06 41.21330 36.07311 9484 ft 299 kts 40°
2026-04-26 19:07 41.22871 36.09162 9094 ft 298 kts 40°
2026-04-26 19:07 41.24404 36.11001 8692 ft 296 kts 41°
2026-04-26 19:07 41.25933 36.12834 8305 ft 296 kts 41°
2026-04-26 19:07 41.27452 36.14655 7912 ft 294 kts 41°
2026-04-26 19:08 41.28971 36.16478 7519 ft 293 kts 41°
2026-04-26 19:08 41.30478 36.18291 7124 ft 291 kts 41°
2026-04-26 19:08 41.31973 36.20090 6725 ft 290 kts 42°
2026-04-26 19:08 41.33459 36.21884 6351 ft 286 kts 42°
2026-04-26 19:09 41.34906 36.23646 5953 ft 278 kts 42°
2026-04-26 19:09 41.36296 36.25374 5591 ft 269 kts 43°
2026-04-26 19:09 41.37624 36.27047 5248 ft 256 kts 42°
2026-04-26 19:09 41.38882 36.28638 4911 ft 243 kts 43°
2026-04-26 19:10 41.40079 36.30146 4593 ft 231 kts 42°
2026-04-26 19:10 41.41212 36.31599 4329 ft 222 kts 47°
2026-04-26 19:10 41.41794 36.33417 4252 ft 215 kts 89°
2026-04-26 19:10 41.41300 36.35228 4100 ft 212 kts 133°
2026-04-26 19:11 41.40105 36.36326 3888 ft 205 kts 148°
2026-04-26 19:11 41.39059 36.37573 3595 ft 200 kts 131°
2026-04-26 19:11 41.38133 36.38913 3351 ft 191 kts 131°
2026-04-26 19:11 41.37273 36.40137 3124 ft 172 kts 132°
2026-04-26 19:12 41.36486 36.41247 2893 ft 159 kts 132°
2026-04-26 19:12 41.35741 36.42295 2693 ft 154 kts 132°
2026-04-26 19:12 41.35012 36.43319 2491 ft 151 kts 132°
2026-04-26 19:12 41.34300 36.44318 2294 ft 149 kts 133°
2026-04-26 19:13 41.33588 36.45317 2098 ft 148 kts 133°
2026-04-26 19:13 41.32886 36.46301 1902 ft 146 kts 134°
2026-04-26 19:13 41.32185 36.47284 1712 ft 146 kts 134°
2026-04-26 19:13 41.31491 36.48256 1499 ft 144 kts 134°
2026-04-26 19:14 41.30804 36.49218 1319 ft 143 kts 134°
2026-04-26 19:14 41.30122 36.50172 1127 ft 141 kts 134°
2026-04-26 19:14 41.29446 36.51115 950 ft 140 kts 134°
2026-04-26 19:14 41.29005 36.51734 831 ft 138 kts 134°
2026-04-26 19:15 41.28123 36.52959 590 ft 136 kts 133°
2026-04-26 19:15 41.27485 36.53880 406 ft 135 kts 134°
2026-04-26 19:15 41.26839 36.54782 199 ft 134 kts 133°
2026-04-26 19:15 41.26197 36.55674 38 ft 130 kts 133°
2026-04-26 19:16 41.25683 36.56387 28 ft 68 kts 133°
2026-04-26 19:16 41.25528 36.56605 24 ft 11 kts 134°
2026-04-26 19:16 41.25479 36.56671 26 ft 9 kts 134°
2026-04-26 19:16 41.25444 36.56719 24 ft 7 kts 134°
2026-04-26 19:17 41.25409 36.56767 24 ft 7 kts 134°
2026-04-26 19:17 41.25400 36.56807 24 ft 4 kts 113°
2026-04-26 19:17 41.25392 36.56801 24 ft 1 kts 227°
2026-04-26 19:17 41.25399 36.56789 23 ft 5 kts 303°
2026-04-26 19:18 41.25453 36.56706 24 ft 16 kts 313°
2026-04-26 19:18 41.25530 36.56599 24 ft 17 kts 313°
2026-04-26 19:18 41.25612 36.56484 27 ft 18 kts 313°
2026-04-26 19:18 41.25702 36.56358 26 ft 20 kts 313°
2026-04-26 19:19 41.25800 36.56221 25 ft 20 kts 314°
2026-04-26 19:19 41.25900 36.56080 23 ft 23 kts 313°
2026-04-26 19:19 41.26004 36.55935 23 ft 19 kts 313°
2026-04-26 19:19 41.26007 36.55832 24 ft 11 kts 235°
2026-04-26 19:20 41.25958 36.55772 26 ft 9 kts 225°
2026-04-26 19:20 41.25930 36.55736 25 ft 8 kts 224°
2026-04-26 19:20 41.25883 36.55678 27 ft 0 kts 222°
2026-04-26 19:20 41.25868 36.55660 28 ft 7 kts 222°
2026-04-26 19:21 41.25833 36.55617 29 ft 6 kts 224°
2026-04-26 19:21 41.25818 36.55597 26 ft 0 kts 224°